CZ-6A DEB

Satellite information

Favourite Embed

Satellite Type and Status

DEBRISIN ORBIT

Key statistics

Satellite CZ-6A DEB at a glance.

Uptime

390

Days in orbit

Revolutions

≈ 14.5

Per day

Orbit

LEO

Low Earth Orbit

Inclination

89.0

Latest

Satellite identification and parameters

Extended collection of information and parameters for CZ-6A DEB.

Object identification

Identified? True

Debris? True

Object name: CZ-6A DEB

International designator: 2024-140BB

Object number (NORAD): 60650

Object ID (CCSDS): 60650

Country: PEOPLES REPUBLIC OF CHINA (PRC)

Current information (Y/N): Y

RCS size: MEDIUM

Orbital parameters

Period: 98.973 minutes

Inclination: 88.9631 deg

SMA: 7087.679 km

Apoapsis: 801.065 km

Periapsis: 618.022 km

RAAN: 303.009 deg

Eccentricy: 0.01291273

Argument of periapsis: 178.9386 deg

Mean anomaly: 181.2124 deg

Mean motion: 14.54945569 rev/day

Mean motion (dot): 0.00001568 rev/day2

B* drag term: 0.00032212487 1/REarth

Two-line elements (TLE)

Creation date: Aug. 31, 2025, 2:26 a.m.

Reference frame: TEME

Reference center: EARTH

Epoch: Aug. 30, 2025, 9:22 p.m. UTC

TLE line 0: 0 CZ-6A DEB

TLE line 1: 1 60650U 24140BB 25242.89064537 .00001568 00000-0 32212-3 0 9998

TLE line 2: 2 60650 88.9631 303.0090 0129127 178.9386 181.2124 14.54945569 56308

Live tracking on map

Real-time ground track for satellite CZ-6A DEB.

In-orbit conjunctions

A list of the most updated potential collisions computed for object CZ-6A DEB.

Target Orbit TCA Probability of collision Miss distance Type
CZ-6A DEB SSO 2025-07-17 21:25:08 0.0001310531 586.0 (m) DEBRIS
FENGYUN 1C DEB SSO 2025-03-05 08:57:37 0.000121787 856.0 (m) DEBRIS
SL-8 DEB * LEO 2024-12-03 19:57:52 0.0004646663 181.0 (m) DEBRIS
CZ-6A DEB LEO 2024-11-16 10:10:59 0.001834773 865.0 (m) DEBRIS
NOAA 17 DEB SSO 2024-10-31 21:46:57 0.0002262478 550.0 (m) DEBRIS

Associated space launch

18 Low Earth Orbit communication satellites with Ku, Q and V band payloads for the G60 constellation operated by Shanghai Spacecom Satellite Technology (SSST) with funding backed by the Shanghai local government. Initial constellation will consist of 1296 satellites by 2027 with long term plans to expand it to 12000 satellites.

CZ-6A DEB was lifted into orbit during the mission ‘Long March 6A | G60 Polar Group 01’, on board a Long March 6A space rocket.

The launch took place on Aug. 6, 2024, 6:42 a.m. from Launch Complex 9A.

For more information about the launch, click the button.

Launch to space Long March 6A | G60 Polar Group 01
Long March 6A | G60 Polar Group 01

Agency: N/A

Status: Launch Successful

Launch date: Aug. 6, 2024, 6:42 a.m. UTC

Rocket: Long March 6A

Launch pad: Launch Complex 9A

Location: Taiyuan Satellite Launch Center, People's Republic of China

...

Latest news about this satellite

News about space launch
Brightness of first Chinese broadband constellation satellites alarms astronomers

The first satellites of a Chinese broadband constellation are significantly brighter than those of Western systems, posing a new challenge for astronomers.

News about space launch
Chinese rocket stage breaks up into cloud of more than 700 pieces of space debris

HELSINKI — A Chinese Long March 6A rocket’s upper stage has fragmented into a cloud of over 700 pieces of space debris, adding to concerns about long-term orbital safety. China […]

News about space launch
China's Thousand Sails Megaconstellation Kicks Off with Dangerous Debris Field

China's Thousand Sails Megaconstellation Kicks Off with Dangerous Debris Field


Newsletter sign-up

Weekly statistics, charts and insights to help you stay on top of the space industry.